Flag for Germany

Past Weather in Osterholz-Scharmbeck, Lower Saxony, Germany — Yesterday and Last 2 Weeks

Now
61 °F

Clear.


Feels Like: 61 °F
Forecast: 71 / 47 °F
Wind: 8 mph from North

Location: Bremen Airport

Current Time: Jul 12, 2020 at 10:26:31 pm

Latest Report: Jul 12, 2020 at 9:50 pm


Visibility: 10 mi

Pressure: 30.33 "Hg

Humidity: 68%

Dew Point: 50 °F

Location of Osterholz-ScharmbeckLocation

Past Weather in Osterholz-Scharmbeck — Graph

°F

Osterholz-Scharmbeck Temperature Yesterday

Maximum temperature yesterday: 66 °F (at 12:50 pm)
Minimum temperature yesterday: 46 °F (at 1:50 am)
Average temperature yesterday: 56 °F

High & Low Weather Summary for the Past Weeks

 TemperatureHumidityPressure
High75 °F (Jul 2, 2:50 pm)100% (Jun 28, 4:20 am)30.36 "Hg (Jun 28, 4:20 am)
Low45 °F (Jul 12, 4:20 am)33% (Jun 29, 2:50 pm)29.65 "Hg (Jul 1, 2:50 pm)
Average60 °F78%29.90 "Hg
* Reported Jun 27 9:20 pm — Jul 12 9:20 pm, Osterholz-Scharmbeck. Weather by CustomWeather, © 2020

Note: Actual official high and low records may vary slightly from our data, if they occured in-between our weather recording intervals... More about our weather records

Osterholz-Scharmbeck Weather History for the Previous 24 Hours

Scroll right to see more
 ConditionsComfort  
Time TempWeatherWind HumidityBarometerVisibility
9:20 pm
Sun, Jul 12
63 °FSunny.9 mph68%30.33 "Hg10 mi
8:50 pm63 °FPassing clouds.9 mph68%30.33 "HgN/A
8:20 pm64 °FPassing clouds.8 mph64%30.33 "HgN/A
7:50 pm66 °FPassing clouds.8 mph60%30.33 "HgN/A
7:20 pm66 °FPassing clouds.9 mph60%30.33 "HgN/A
6:50 pm68 °FPassing clouds.8 mph56%30.33 "HgN/A
6:20 pm68 °FPassing clouds.6 mph53%30.33 "HgN/A
5:50 pm68 °FPassing clouds.8 mph49%30.33 "HgN/A
5:20 pm68 °FPassing clouds.7 mph53%30.33 "HgN/A
4:50 pm66 °FPassing clouds.8 mph56%30.33 "HgN/A
4:20 pm66 °FSunny.9 mph52%30.33 "Hg10 mi
3:50 pm68 °FPassing clouds.7 mph49%30.36 "HgN/A
3:20 pm68 °FPassing clouds.8 mph46%30.36 "HgN/A
2:50 pm66 °FPassing clouds.6 mph46%30.36 "HgN/A
2:20 pm68 °FPassing clouds.8 mph46%30.36 "HgN/A
1:50 pm66 °FPassing clouds.7 mph46%30.36 "HgN/A
1:20 pm66 °FSunny.8 mph49%30.36 "Hg10 mi
12:50 pm66 °FPartly sunny.7 mph49%30.36 "HgN/A
12:20 pm64 °FScattered clouds.8 mph49%30.36 "HgN/A
11:50 am64 °FScattered clouds.7 mph52%30.36 "HgN/A
11:20 am63 °FScattered clouds.7 mph52%30.36 "HgN/A
10:50 am63 °FScattered clouds.7 mph56%30.36 "HgN/A
10:20 am63 °FScattered clouds.8 mph59%30.36 "HgN/A
9:50 am61 °FScattered clouds.9 mph68%30.36 "HgN/A
9:20 am61 °FPassing clouds.8 mph68%30.36 "HgN/A
8:50 am59 °FPassing clouds.7 mph72%30.36 "HgN/A
8:20 am57 °FSunny.2 mph82%30.33 "Hg10 mi
7:50 am54 °FPassing clouds.3 mph94%30.33 "HgN/A
7:20 am52 °FSunny.1 mph94%30.33 "Hg10 mi
6:50 am50 °FSunny.1 mph94%30.33 "Hg10 mi
6:20 am46 °FFog.2 mph100%30.33 "Hg1 mi
5:50 am45 °FFog.2 mph100%30.30 "Hg1 mi
5:20 am45 °FFog.3 mph100%30.30 "Hg1 mi
4:50 am45 °FFog.2 mph100%30.30 "Hg1 mi
4:20 am45 °FFog.1 mph100%30.30 "Hg1 mi
3:50 am46 °FFog.2 mph100%30.30 "Hg1 mi
3:20 am48 °FFog.1 mph100%30.30 "Hg1 mi
2:50 am46 °FFog.3 mph100%30.30 "Hg1 mi
2:20 am46 °FFog.3 mph100%30.30 "Hg1 mi
1:50 am50 °FFog.1 mph100%30.30 "Hg1 mi
1:20 am48 °FFog.2 mph100%30.30 "Hg1 mi
12:50 am48 °FFog.3 mph100%30.30 "Hg1 mi
12:20 am52 °FFog.2 mph94%30.30 "Hg1 mi
11:50 pm
Sat, Jul 11
52 °FCool.1 mph100%30.30 "HgN/A
11:20 pm54 °FPassing clouds.1 mph100%30.30 "HgN/A
10:50 pm54 °FPassing clouds.1 mph100%30.30 "HgN/A
10:20 pm55 °FPassing clouds.1 mph94%30.27 "HgN/A
Weather by CustomWeather, © 2020

See weather overview